Retour au catalogue

USA 443

ActifMilitaireVLEO
NORAD 62342·PAYLOAD·🇺🇸 United States

Lancé Dec 17, 2024 depuis Vandenberg Space Force Base

Loading…

Prochains Passages (prochaines 24 heures)

TLE

PériméSource: Mike McCants

Époque: Aug 7, 2026, 23:29 UTC

1 62342U 24243C   26219.97897947 0.00000000  00000-0  00000-0 0    05
2 62342  70.0207 166.7814 0002000 247.9280 112.0720 14.96713330    02

Suivez USA 443 en temps réel avec AllMySat

Download on the App Store